Content
SEND FEEDBACK

Daily
Averages
Monthly
Summary
Italy

BARI, ITALY


Home > Europe > Italy
Elevation: 144 feet     Latitude: 41 08N     Longitude: 016 47E

WEATHER
 
SELECT A DAY
Number of Records: 303,614;   Date Range: 7/1/96 - 12/17/14
 
SHARE

PRINT THIS DATA

[ ← Previous Day ]
WEATHER ALMANAC - MAY 25, 2013
[ Next Day → ]
[ °C ]   °F
Weather ElementAverageHighLow
Temperature62.7 °F69.8 °F (10:20 am)55.4 °F (7:20 am)
Dewpoint45.7 °F53.6 °F (7:50 am)33.8 °F (5:20 pm)
Humidity56.6 %88 % (7:20 am)27 % (5:20 pm)
Barometer29.85 in29.86 in (12:50 am)29.83 in (4:50 am)
Wind Speed10.9 mph27.6 mph (6:20 pm)
Wind Gust39.1 mph (6:20 pm)
Weather ElementAverage
Visibility6.1 mi
Wind DirectionSSW (192.3 °)

Weather ElementTotal
Precipitation---
Heating Degree Days2.4 (Base 65)
Growing Degree Days12.6 (Base 50)
Averaged from 47 records on May 25, 2013
WEATHER CONDITIONS BREAKOUT
WIND DIRECTION BREAKOUT
WEATHER BY HOUR - MAY 25, 2013
[ °C ]   °F
Local TimeTemperatureDewpointHumidityBarometerVisibilityWind DirectionWind SpeedGust SpeedPrecipitationEventsConditions
12:50 AM62.6 °F48.2 °F59 %29.86 in6.2 miSW (230°)5.8 mphPartly Cloudy
1:20 AM62.6 °F48.2 °F59 %29.86 in6.2 miSW (230°)5.8 mphPartly Cloudy
1:50 AM60.8 °F50.0 °F68 %29.86 in6.2 miSW (230°)5.8 mphPartly Cloudy
2:20 AM59.0 °F50.0 °F72 %29.86 in6.2 miWest (260°)3.5 mphPartly Cloudy
2:50 AM57.2 °F50.0 °F77 %29.86 in6.2 miSW (230°)5.8 mphPartly Cloudy
3:20 AM57.2 °F50.0 °F77 %29.86 in6.2 miSW (220°)5.8 mphPartly Cloudy
3:50 AM57.2 °F50.0 °F77 %29.86 in6.2 miSW (230°)5.8 mphPartly Cloudy
4:20 AM57.2 °F50.0 °F77 %29.86 in6.2 miSW (220°)5.8 mphPartly Cloudy
4:50 AM60.8 °F50.0 °F68 %29.83 in6.2 miWest (280°)8.1 mphRainLight Rain
5:20 AM59.0 °F50.0 °F72 %29.83 in6.2 miWNW (290°)8.1 mphRainLight Rain
5:50 AM57.2 °F51.8 °F82 %29.86 in6.2 miWNW (300°)5.8 mphPartly Cloudy
6:20 AM57.2 °F51.8 °F82 %29.86 in6.2 miNW (320°)6.9 mphPartly Cloudy
6:50 AM57.2 °F51.8 °F82 %29.86 in6.2 miWNW (300°)4.6 mphScattered Clouds
7:20 AM55.4 °F51.8 °F88 %29.86 in3.7 miWest (280°)6.9 mphRainLight Rain
7:50 AM57.2 °F53.6 °F88 %29.86 in5.0 miVariable1.2 mphScattered Clouds
8:20 AM59.0 °F51.8 °F77 %29.86 in5.0 miVariable2.3 mphScattered Clouds
8:50 AM60.8 °F53.6 °F77 %29.86 in5.0 miSSW (200°)4.6 mphScattered Clouds
9:20 AM64.4 °F50.0 °F59 %29.86 in6.2 miSW (230°)10.4 mphScattered Clouds
9:50 AM66.2 °F48.2 °F52 %29.86 in6.2 miWSW (240°)12.7 mphPartly Cloudy
10:20 AM69.8 °F46.4 °F43 %29.86 in6.2 miWest (260°)18.4 mphScattered Clouds
10:50 AM68.0 °F44.6 °F43 %29.86 in6.2 miWest (280°)16.1 mphScattered Clouds
11:20 AM64.4 °F51.8 °F64 %29.86 in6.2 miNNE (20°)13.8 mphScattered Clouds
11:50 AM64.4 °F50.0 °F59 %29.86 in6.2 miNE (40°)10.4 mphScattered Clouds
12:20 PM64.4 °F50.0 °F59 %29.86 in6.2 miNE (40°)10.4 mphScattered Clouds
12:50 PM64.4 °F48.2 °F56 %29.86 in6.2 miVariable3.5 mphScattered Clouds
1:20 PM66.2 °F50.0 °F56 %29.86 in6.2 miNNE (30°)6.9 mphPartly Cloudy
1:50 PM66.2 °F48.2 °F52 %29.86 in6.2 miVariable5.8 mphPartly Cloudy
2:20 PM66.2 °F48.2 °F52 %29.83 in6.2 miESE (120°)11.5 mphPartly Cloudy
2:50 PM64.4 °F48.2 °F56 %29.86 in6.2 miEast (100°)12.7 mphPartly Cloudy
3:20 PM64.4 °F50.0 °F59 %29.86 in6.2 miEast (100°)9.2 mphScattered Clouds
3:50 PM64.4 °F50.0 °F59 %29.86 in6.2 miEast (100°)9.2 mphScattered Clouds
4:20 PM68.0 °F42.8 °F40 %29.86 in6.2 miEast (100°)9.2 mphScattered Clouds
4:50 PM66.2 °F44.6 °F46 %29.83 in6.2 miEast (100°)9.2 mphScattered Clouds
5:20 PM69.8 °F33.8 °F27 %29.83 in6.2 miWest (270°)25.3 mphPartly Cloudy
5:50 PM69.8 °F33.8 °F27 %29.83 in6.2 miWest (260°)17.3 mphPartly Cloudy
6:20 PM68.0 °F35.6 °F30 %29.83 in6.2 miWest (270°)27.6 mph39.1 mphPartly Cloudy
6:50 PM68.0 °F35.6 °F30 %29.83 in6.2 miWest (270°)21.9 mphPartly Cloudy
7:20 PM66.2 °F35.6 °F32 %29.86 in6.2 miWSW (240°)26.5 mphPartly Cloudy
7:50 PM66.2 °F35.6 °F32 %29.86 in6.2 miWSW (250°)13.8 mphPartly Cloudy
8:20 PM64.4 °F35.6 °F34 %29.86 in6.2 miWSW (240°)23.0 mphPartly Cloudy
8:50 PM64.4 °F35.6 °F34 %29.86 in6.2 miWSW (240°)20.7 mphPartly Cloudy
9:20 PM62.6 °F35.6 °F37 %29.86 in6.2 miWSW (240°)23.0 mphPartly Cloudy
9:50 PM62.6 °F37.4 °F39 %29.86 in6.2 miWest (260°)12.7 mphPartly Cloudy
10:20 PM60.8 °F39.2 °F45 %29.86 in6.2 miWSW (240°)23.0 mphPartly Cloudy
10:50 PM59.0 °F39.2 °F48 %29.86 in6.2 miSW (230°)5.8 mphPartly Cloudy
11:20 PM59.0 °F41.0 °F51 %29.86 inWSW (250°)6.9 mphClear
11:50 PM55.4 °F41.0 °F58 %29.86 inSSW (200°)3.5 mphClear
Hourly data recorded from LIBD, located miles away from Bari, Italy







STORIES FROM OUR PARTNERS